TimeEST,TemperatureF,Dew PointF,Humidity,Sea Level PressureIn,VisibilityMPH,Wind Direction,Wind SpeedMPH,Gust SpeedMPH,PrecipitationIn,Events,Conditions,WindDirDegrees,DateUTC
12:09 AM,30.2,26.6,86,29.37,2.0,WSW,24.2,34.5,0.00,Snow,Light Snow,250,2012-01-13 05:09:00
12:35 AM,28.4,24.8,86,29.39,3.0,WSW,18.4,28.8,0.00,Snow,Light Snow,250,2012-01-13 05:35:00
12:51 AM,27.0,23.0,85,29.43,3.0,WSW,19.6,28.8,N/A,Snow,Light Snow,240,2012-01-13 05:51:00
1:12 AM,26.6,21.2,80,29.42,1.5,WSW,18.4,28.8,0.00,Snow,Light Snow,240,2012-01-13 06:12:00
1:35 AM,24.8,19.4,80,29.44,3.0,WSW,29.9,40.3,0.00,Snow,Light Snow,240,2012-01-13 06:35:00
1:51 AM,23.0,17.1,78,29.47,9.0,WSW,25.3,34.5,0.00,Snow,Light Snow,240,2012-01-13 06:51:00
2:51 AM,21.2,12.2,68,29.47,9.0,SW,24.2,32.2,N/A,Snow,Light Snow,230,2012-01-13 07:51:00
3:19 AM,19.4,12.2,74,29.47,9.0,WSW,19.6,31.1,0.00,Snow,Light Snow,240,2012-01-13 08:19:00
3:34 AM,19.4,15.8,86,29.48,2.0,SW,19.6,27.6,0.00,Snow,Light Snow,230,2012-01-13 08:34:00
3:51 AM,19.4,15.8,86,29.52,2.0,WSW,19.6,27.6,N/A,Snow,Light Snow,240,2012-01-13 08:51:00
4:07 AM,19.4,8.6,63,29.48,6.0,SW,21.9,36.8,0.00,Snow,Light Snow,230,2012-01-13 09:07:00
4:51 AM,17.1,7.0,65,29.52,7.0,SW,23.0,32.2,0.00,Snow,Light Snow,220,2012-01-13 09:51:00
5:27 AM,15.8,10.4,79,29.49,1.8,WSW,18.4,28.8,0.00,Snow,Light Snow,240,2012-01-13 10:27:00
5:51 AM,16.0,10.9,81,29.53,1.8,WSW,18.4,27.6,0.00,Snow,Light Snow,240,2012-01-13 10:51:00
6:51 AM,15.8,10.4,79,29.52,1.8,SW,16.1,27.6,N/A,Snow,Light Snow,220,2012-01-13 11:51:00
7:15 AM,15.8,10.4,79,29.50,2.5,SW,17.3,26.5,0.00,Snow,Light Snow,220,2012-01-13 12:15:00
7:51 AM,15.8,10.4,79,29.50,1.5,SW,17.3,25.3,N/A,Snow,Light Snow,220,2012-01-13 12:51:00
8:14 AM,15.8,10.4,79,29.51,0.5,SW,15.0,29.9,0.00,Snow,Light Snow,220,2012-01-13 13:14:00
8:51 AM,16.0,10.9,81,29.55,0.5,SW,20.7,28.8,0.00,Snow,Light Snow,220,2012-01-13 13:51:00
9:37 AM,15.8,10.4,79,29.54,1.0,SW,17.3,-,0.00,Snow,Light Snow,220,2012-01-13 14:37:00
9:51 AM,16.0,10.9,81,29.58,0.5,SW,20.7,27.6,N/A,Snow,Light Snow,230,2012-01-13 14:51:00
10:51 AM,17.1,12.0,81,29.60,0.5,SW,23.0,31.1,N/A,Snow,Light Snow,230,2012-01-13 15:51:00
11:01 AM,17.6,12.2,79,29.56,0.5,SW,21.9,31.1,0.00,Snow,Light Snow,230,2012-01-13 16:01:00
11:51 AM,18.0,12.9,81,29.62,0.5,SW,23.0,33.4,N/A,Snow,Light Snow,230,2012-01-13 16:51:00
12:41 PM,19.4,12.2,74,29.59,1.5,WSW,18.4,34.5,N/A,Snow,Light Snow,240,2012-01-13 17:41:00
12:51 PM,19.0,12.9,77,29.64,1.8,WSW,20.7,31.1,N/A,Snow,Light Snow,250,2012-01-13 17:51:00
1:29 PM,19.4,14.0,80,29.61,0.8,WSW,18.4,26.5,0.00,Snow,Light Snow,240,2012-01-13 18:29:00
1:51 PM,19.9,14.0,78,29.68,0.8,WSW,25.3,33.4,N/A,Snow,Light Snow,240,2012-01-13 18:51:00
2:51 PM,19.9,14.0,78,29.72,0.8,WSW,17.3,32.2,N/A,Snow,Light Snow,240,2012-01-13 19:51:00
3:37 PM,19.4,14.0,80,29.70,0.8,SW,19.6,29.9,0.00,Snow,Light Snow,230,2012-01-13 20:37:00
3:51 PM,19.9,12.9,74,29.77,0.8,WSW,19.6,28.8,N/A,Snow,Light Snow,240,2012-01-13 20:51:00
4:22 PM,19.4,12.2,74,29.74,1.8,WSW,19.6,31.1,0.00,Snow,Light Snow,250,2012-01-13 21:22:00
4:51 PM,19.0,12.9,77,29.82,1.8,SW,18.4,25.3,0.00,Snow,Light Snow,230,2012-01-13 21:51:00
5:51 PM,19.0,12.9,77,29.86,1.2,WSW,18.4,29.9,0.00,Snow,Light Snow,240,2012-01-13 22:51:00
6:51 PM,18.0,12.9,81,29.89,1.0,WSW,20.7,27.6,N/A,Snow,Light Snow,240,2012-01-13 23:51:00
7:51 PM,18.0,12.0,78,29.92,1.0,SW,16.1,-,0.00,Snow,Light Snow,230,2012-01-14 00:51:00
8:51 PM,18.0,12.0,78,29.93,6.0,WSW,17.3,-,0.00,Snow,Light Snow,240,2012-01-14 01:51:00
9:51 PM,18.0,12.0,78,29.94,3.0,WSW,19.6,24.2,0.00,Snow,Light Snow,240,2012-01-14 02:51:00
10:51 PM,18.0,12.9,81,29.95,3.0,WSW,15.0,-,0.00,Snow,Light Snow,250,2012-01-14 03:51:00
11:51 PM,18.0,12.0,78,29.95,3.0,WSW,16.1,-,0.00,Snow,Light Snow,240,2012-01-14 04:51:00